TimeEDT,TemperatureF,Dew PointF,Humidity,Sea Level PressureIn,VisibilityMPH,Wind Direction,Wind SpeedMPH,Gust SpeedMPH,PrecipitationIn,Events,Conditions,WindDirDegrees,DateUTC
12:12 AM,57.2,57.2,100,30.15,2.5,Calm,Calm,-,N/A,,Overcast,0,2012-10-25 04:12:00
12:27 AM,57.2,57.2,100,30.15,1.5,Calm,Calm,-,N/A,,Overcast,0,2012-10-25 04:27:00
12:49 AM,57.2,57.2,100,30.15,2.0,East,3.5,-,N/A,,Overcast,90,2012-10-25 04:49:00
12:56 AM,56.8,56.8,100,30.16,3.0,East,3.5,-,N/A,,Overcast,100,2012-10-25 04:56:00
1:05 AM,57.2,57.2,100,30.15,2.5,East,4.6,-,N/A,,Overcast,90,2012-10-25 05:05:00
1:49 AM,57.2,57.2,100,30.16,3.0,East,3.5,-,N/A,,Overcast,100,2012-10-25 05:49:00
1:56 AM,56.8,56.8,100,30.16,5.0,ESE,4.6,-,N/A,,Overcast,120,2012-10-25 05:56:00
2:56 AM,57.9,57.9,100,30.15,9.0,Calm,Calm,-,N/A,,Overcast,0,2012-10-25 06:56:00
3:16 AM,55.4,55.4,100,30.15,4.0,Calm,Calm,-,N/A,,Overcast,0,2012-10-25 07:16:00
3:41 AM,55.4,55.4,100,30.15,4.0,SE,3.5,-,N/A,,Overcast,130,2012-10-25 07:41:00
3:56 AM,56.8,56.8,100,30.15,8.0,SE,3.5,-,N/A,,Overcast,140,2012-10-25 07:56:00
4:28 AM,57.2,57.2,100,30.15,9.0,SE,5.8,-,N/A,,Overcast,130,2012-10-25 08:28:00
4:56 AM,57.9,57.9,100,30.16,8.0,SE,6.9,-,N/A,,Overcast,140,2012-10-25 08:56:00
5:56 AM,57.9,56.8,96,30.16,7.0,SE,4.6,-,N/A,,Overcast,140,2012-10-25 09:56:00
6:22 AM,57.2,57.2,100,30.15,6.0,SE,5.8,-,N/A,,Mostly Cloudy,140,2012-10-25 10:22:00
6:56 AM,56.8,56.8,100,30.16,5.0,ESE,4.6,-,N/A,,Mostly Cloudy,120,2012-10-25 10:56:00
9:56 AM,61.9,57.9,87,30.18,6.0,SSE,8.1,-,N/A,,Partly Cloudy,150,2012-10-25 13:56:00
10:56 AM,63.0,57.9,84,30.19,6.0,SSE,8.1,-,N/A,,Haze,150,2012-10-25 14:56:00
11:56 AM,63.9,57.9,81,30.18,6.0,South,10.4,-,N/A,,Haze,170,2012-10-25 15:56:00
12:56 PM,64.9,57.9,78,30.17,6.0,SSE,13.8,-,N/A,,Haze,150,2012-10-25 16:56:00
2:56 PM,68.9,59.0,71,30.12,10.0,SSE,8.1,-,N/A,,Clear,150,2012-10-25 18:56:00
3:56 PM,68.9,59.0,71,30.13,10.0,SSE,10.4,-,N/A,,Clear,150,2012-10-25 19:56:00
4:56 PM,68.0,57.9,70,30.12,10.0,SE,13.8,-,N/A,,Clear,140,2012-10-25 20:56:00
5:56 PM,64.9,56.8,75,30.12,10.0,SE,10.4,-,N/A,,Clear,130,2012-10-25 21:56:00
6:56 PM,63.0,55.9,78,30.13,10.0,SE,15.0,20.7,N/A,,Clear,140,2012-10-25 22:56:00
7:56 PM,59.9,54.0,81,30.14,10.0,South,12.7,-,N/A,,Clear,170,2012-10-25 23:56:00
9:32 PM,57.2,53.6,88,30.14,10.0,South,13.8,23.0,N/A,,Mostly Cloudy,170,2012-10-26 01:32:00